This is the latest recevied weather packets stored in our database for station/object K7FLA. If no packets are shown the sender has not sent any weather packets the latest 10 day(s).
| Time | Temp. | Humidity | Pressure | Rain* | Wind** | Luminosity | Snow |
|---|---|---|---|---|---|---|---|
| 1788535689 | 24.44° C | 50% | 1094.7 hPa | 0 mm | - | 257 W/m² | - |
| 1788535378 | 23.89° C | 49% | 1094.8 hPa | 0 mm | - | 241 W/m² | - |
| 1788535073 | 23.89° C | 52% | 1094.7 hPa | 0 mm | - | 225 W/m² | - |
| 1788534771 | 23.33° C | 53% | 1094.5 hPa | 0 mm | - | 208 W/m² | - |
| 1788534468 | 22.78° C | 54% | 1094.6 hPa | 0 mm | - | 192 W/m² | - |
| 1788534162 | 22.22° C | 55% | 1094.6 hPa | 0 mm | - | 177 W/m² | - |
| 1788533860 | 21.67° C | 57% | 1094.8 hPa | 0 mm | - | 162 W/m² | - |
| 1788533556 | 21.11° C | 59% | 1094.7 hPa | 0 mm | - | 147 W/m² | - |
| 1788533251 | 20° C | 59% | 1094.5 hPa | 0 mm | - | 131 W/m² | - |
| 1788532947 | 20° C | 60% | 1094.6 hPa | 0 mm | - | 118 W/m² | - |
| 1788532642 | 19.44° C | 63% | 1094.6 hPa | 0 mm | - | 106 W/m² | - |
| 1788532339 | 18.89° C | 65% | 1094.6 hPa | 0 mm | - | 94 W/m² | - |
| 1788532035 | 18.33° C | 68% | 1094.7 hPa | 0 mm | - | 83 W/m² | - |
| 1788531731 | 17.78° C | 69% | 1094.5 hPa | 0 mm | - | 72 W/m² | - |
| 1788531431 | 17.22° C | 70% | 1094.2 hPa | 0 mm | - | 62 W/m² | - |
| 1788531127 | 16.67° C | 73% | 1094.3 hPa | 0 mm | - | 55 W/m² | - |
| 1788530822 | 15.56° C | 75% | 1094.1 hPa | 0 mm | - | 47 W/m² | - |
| 1788530517 | 15° C | 76% | 1094.2 hPa | 0 mm | - | 38 W/m² | - |
| 1788530215 | 13.89° C | 78% | 1094.2 hPa | 0 mm | - | 31 W/m² | - |
| 1788529911 | 13.33° C | 78% | 1094.3 hPa | 0 mm | - | 24 W/m² | - |
| 1788529607 | 13.89° C | 80% | 1094.3 hPa | 0 mm | - | 15 W/m² | - |
| 1788529306 | 13.89° C | 80% | 1094.1 hPa | 0 mm | - | 13 W/m² | - |
| 1788529001 | 13.89° C | 81% | 1094.1 hPa | 0 mm | - | 10 W/m² | - |
| 1788528697 | 13.33° C | 82% | 1094.3 hPa | 0 mm | - | 7 W/m² | - |
| 1788528392 | 13.33° C | 81% | 1094.1 hPa | 0 mm | - | 4 W/m² | - |
* Rain latest hour (hover to see other rain measurements)
** Current wind speed in m/s (hover to see current wind gust speed)